Volver al catálogo

CZ-6A DEB

ActivoPO
NORAD 61431·DEBRIS·🇨🇳 China

Lanzado Aug 6, 2024 desde Taiyuan Satellite Launch Center

Loading…

Próximos Pases (próximas 24 horas)

TLE

ActualizadoSource: Space-Track

Época: Sep 14, 2026, 06:36 UTC

1 61431U 24140YY  26257.27531684  .00001151  00000-0  15498-3 0  9992
2 61431  89.1224 269.9494 0157165 249.7630 108.6631 14.70254883110539

Sigue CZ-6A DEB en tiempo real con AllMySat

Download on the App Store